WZZ63NC LHBP-LIRF

Flight info

Callsign WZZ63NC
Flight time 1h 30m
Altitude 34000
Route DUZLA DCT VEBAL DCT KULEN DCT BAXON/N0442F330 DCT UNUMU DCT ETPOK T369 RITEB
Aircraft A21N/M-SDE2E3FGHIJ1RWXY/LB1

Departure

Time 2026-02-19 11:29
Airport Budapest Liszt Ferenc International Airport (LHBP)

Arrival

Time 2026-02-19 12:59
Airport Rome–Fiumicino Leonardo da Vinci International Airport (LIRF)
Time Latitude Longitude Altitude Speed Heading
2026-02-19 10:56 47.43359 19.26717 463 ft 0 kts 222°
2026-02-19 11:24 47.43344 19.26697 462 ft 5 kts 223°
2026-02-19 11:24 47.43301 19.26692 462 ft 8 kts 155°
2026-02-19 11:25 47.43254 19.26764 463 ft 12 kts 108°
2026-02-19 11:25 47.43270 19.26895 463 ft 14 kts 66°
2026-02-19 11:25 47.43312 19.27041 463 ft 16 kts 65°
2026-02-19 11:25 47.43381 19.27068 463 ft 13 kts 324°
2026-02-19 11:26 47.43451 19.26964 464 ft 16 kts 313°
2026-02-19 11:26 47.43534 19.26829 464 ft 19 kts 313°
2026-02-19 11:26 47.43627 19.26679 462 ft 20 kts 312°
2026-02-19 11:26 47.43724 19.26519 463 ft 21 kts 312°
2026-02-19 11:27 47.43826 19.26355 463 ft 22 kts 313°
2026-02-19 11:27 47.43906 19.26231 463 ft 11 kts 314°
2026-02-19 11:27 47.43978 19.26237 464 ft 12 kts 37°
2026-02-19 11:27 47.44047 19.26343 469 ft 17 kts 61°
2026-02-19 11:28 47.44064 19.26519 476 ft 16 kts 110°
2026-02-19 11:28 47.43911 19.26781 476 ft 61 kts 131°
2026-02-19 11:28 47.43476 19.27485 472 ft 124 kts 132°
2026-02-19 11:29 47.42773 19.28650 595 ft 167 kts 131°
2026-02-19 11:29 47.42018 19.29845 1693 ft 156 kts 133°
2026-02-19 11:29 47.41415 19.31174 2473 ft 157 kts 113°
2026-02-19 11:29 47.41044 19.32744 2873 ft 164 kts 120°
2026-02-19 11:30 47.40459 19.34194 3350 ft 165 kts 123°
2026-02-19 11:30 47.39878 19.35665 3761 ft 173 kts 122°
2026-02-19 11:30 47.39266 19.37273 4149 ft 186 kts 121°
2026-02-19 11:30 47.38618 19.38980 4665 ft 193 kts 123°
2026-02-19 11:31 47.37660 19.40322 5179 ft 192 kts 160°
2026-02-19 11:31 47.36371 19.40535 5741 ft 186 kts 195°
2026-02-19 11:31 47.35320 19.39776 6264 ft 184 kts 225°
2026-02-19 11:31 47.34588 19.38314 6632 ft 193 kts 242°
2026-02-19 11:32 47.33886 19.36534 7023 ft 209 kts 241°
2026-02-19 11:32 47.32230 19.32556 7679 ft 247 kts 240°
2026-02-19 11:32 47.31293 19.30339 8169 ft 260 kts 240°
2026-02-19 11:33 47.30326 19.28057 8835 ft 265 kts 240°
2026-02-19 11:33 47.29341 19.25742 9567 ft 267 kts 240°
2026-02-19 11:33 47.28347 19.23407 10174 ft 273 kts 240°
2026-02-19 11:33 47.27308 19.20972 10495 ft 288 kts 239°
2026-02-19 11:34 47.26226 19.18443 10777 ft 303 kts 239°
2026-02-19 11:34 47.25089 19.15779 11236 ft 310 kts 239°
2026-02-19 11:34 47.23933 19.13084 11833 ft 313 kts 239°
2026-02-19 11:34 47.22764 19.10353 12500 ft 316 kts 239°
2026-02-19 11:35 47.21582 19.07598 13220 ft 319 kts 239°
2026-02-19 11:35 47.20392 19.04830 13916 ft 321 kts 239°
2026-02-19 11:35 47.19156 19.02076 14554 ft 324 kts 236°
2026-02-19 11:35 47.17590 18.99652 15164 ft 330 kts 223°
2026-02-19 11:36 47.15798 18.97491 15773 ft 334 kts 221°
2026-02-19 11:36 47.12162 18.93153 17044 ft 339 kts 222°
2026-02-19 11:36 47.10359 18.90965 17672 ft 343 kts 222°
2026-02-19 11:37 47.08492 18.88688 18292 ft 346 kts 222°
2026-02-19 11:37 47.06657 18.86446 18853 ft 349 kts 222°
2026-02-19 11:37 47.04789 18.84163 19422 ft 350 kts 222°
2026-02-19 11:37 47.02913 18.81867 19982 ft 352 kts 221°
2026-02-19 11:38 47.01024 18.79555 20501 ft 354 kts 221°
2026-02-19 11:38 46.99121 18.77232 21031 ft 357 kts 221°
2026-02-19 11:38 46.97203 18.74901 21548 ft 359 kts 221°
2026-02-19 11:38 46.95323 18.72493 22054 ft 361 kts 226°
2026-02-19 11:39 46.94151 18.70748 22388 ft 362 kts 227°
2026-02-19 11:39 46.92407 18.68092 22880 ft 364 kts 227°
2026-02-19 11:39 46.90070 18.64520 23518 ft 367 kts 227°
2026-02-19 11:39 46.88871 18.62689 23805 ft 368 kts 227°
2026-02-19 11:40 46.87098 18.60000 24248 ft 368 kts 227°
2026-02-19 11:40 46.83538 18.54592 25126 ft 369 kts 227°
2026-02-19 11:40 46.81777 18.51925 25555 ft 370 kts 228°
2026-02-19 11:41 46.79989 18.49225 25989 ft 371 kts 228°
2026-02-19 11:41 46.78197 18.46518 26398 ft 371 kts 228°
2026-02-19 11:41 46.76399 18.43808 26811 ft 372 kts 228°
2026-02-19 11:41 46.74600 18.41098 27224 ft 372 kts 228°
2026-02-19 11:42 46.72801 18.38383 27622 ft 373 kts 229°
2026-02-19 11:42 46.70996 18.35658 28005 ft 374 kts 229°
2026-02-19 11:42 46.69187 18.32937 28404 ft 374 kts 229°
2026-02-19 11:42 46.67374 18.30218 28786 ft 375 kts 229°
2026-02-19 11:43 46.65554 18.27485 29155 ft 376 kts 229°
2026-02-19 11:43 46.63729 18.24745 29496 ft 377 kts 229°
2026-02-19 11:43 46.61902 18.22012 29837 ft 378 kts 229°
2026-02-19 11:43 46.60065 18.19282 30131 ft 379 kts 229°
2026-02-19 11:44 46.58224 18.16536 30395 ft 380 kts 229°
2026-02-19 11:44 46.54544 18.11042 30858 ft 383 kts 229°
2026-02-19 11:44 46.52682 18.08266 31133 ft 383 kts 229°
2026-02-19 11:45 46.50832 18.05509 31428 ft 382 kts 229°
2026-02-19 11:45 46.48965 18.02728 31721 ft 381 kts 230°
2026-02-19 11:45 46.47115 17.99980 32041 ft 380 kts 230°
2026-02-19 11:45 46.45272 17.97239 32328 ft 380 kts 230°
2026-02-19 11:46 46.43425 17.94507 32591 ft 379 kts 230°
2026-02-19 11:46 46.41576 17.91781 32843 ft 378 kts 230°
2026-02-19 11:46 46.39737 17.89067 33099 ft 377 kts 230°
2026-02-19 11:46 46.37900 17.86351 33338 ft 377 kts 230°
2026-02-19 11:47 46.36063 17.83645 33568 ft 377 kts 230°
2026-02-19 11:47 46.34220 17.80937 33777 ft 377 kts 230°
2026-02-19 11:47 46.30525 17.75513 33794 ft 379 kts 230°
2026-02-19 11:48 46.25007 17.67416 33771 ft 378 kts 230°
2026-02-19 11:49 46.21320 17.62015 33773 ft 377 kts 230°
2026-02-19 11:49 46.17639 17.56630 33765 ft 376 kts 230°
2026-02-19 11:50 46.13962 17.51252 33768 ft 377 kts 230°
2026-02-19 11:50 46.10275 17.45876 33762 ft 375 kts 230°
2026-02-19 11:51 46.06622 17.40565 33767 ft 375 kts 230°
2026-02-19 11:51 46.02953 17.35249 33758 ft 375 kts 230°
2026-02-19 11:52 45.99365 17.29803 33749 ft 371 kts 236°
2026-02-19 11:52 45.95606 17.20231 33752 ft 367 kts 244°
2026-02-19 11:53 45.93230 17.13733 33743 ft 366 kts 244°
2026-02-19 11:53 45.90840 17.07251 33750 ft 366 kts 244°
2026-02-19 11:54 45.88463 17.00833 33740 ft 366 kts 244°
2026-02-19 11:55 45.84869 16.91169 33745 ft 366 kts 244°
2026-02-19 11:55 45.82477 16.84745 33740 ft 364 kts 244°
2026-02-19 11:56 45.80082 16.78331 33741 ft 365 kts 244°
2026-02-19 11:56 45.76507 16.68789 33744 ft 364 kts 244°
2026-02-19 11:57 45.74113 16.62404 33728 ft 363 kts 243°
2026-02-19 11:57 45.71719 16.56052 33735 ft 363 kts 243°
2026-02-19 11:58 45.69412 16.49941 33748 ft 362 kts 243°
2026-02-19 11:58 45.67020 16.43609 33737 ft 362 kts 243°
2026-02-19 11:59 45.64611 16.37286 33727 ft 361 kts 243°
2026-02-19 11:59 45.62215 16.30985 33729 ft 361 kts 243°
2026-02-19 12:00 45.58885 16.22249 33708 ft 360 kts 243°
2026-02-19 12:01 45.56492 16.15963 33724 ft 360 kts 243°
2026-02-19 12:01 45.54087 16.09713 33720 ft 359 kts 242°
2026-02-19 12:02 45.51682 16.03447 33725 ft 360 kts 242°
2026-02-19 12:02 45.49287 15.97209 33715 ft 358 kts 242°
2026-02-19 12:03 45.46873 15.90963 33726 ft 359 kts 242°
2026-02-19 12:03 45.44472 15.84743 33716 ft 359 kts 242°
2026-02-19 12:04 45.42053 15.78510 33716 ft 359 kts 242°
2026-02-19 12:04 45.38437 15.69184 33695 ft 360 kts 242°
2026-02-19 12:05 45.36011 15.62949 33683 ft 360 kts 242°
2026-02-19 12:05 45.33563 15.56711 33691 ft 361 kts 242°
2026-02-19 12:06 45.31134 15.50496 33680 ft 362 kts 242°
2026-02-19 12:06 45.28691 15.44249 33674 ft 362 kts 241°
2026-02-19 12:07 45.26228 15.38008 33680 ft 362 kts 241°
2026-02-19 12:07 45.23776 15.31773 33674 ft 362 kts 241°
2026-02-19 12:08 45.20083 15.22427 33686 ft 361 kts 241°
2026-02-19 12:09 45.17622 15.16232 33682 ft 361 kts 241°
2026-02-19 12:09 45.15082 15.10127 33684 ft 361 kts 239°
2026-02-19 12:10 45.12447 15.04075 33677 ft 361 kts 239°
2026-02-19 12:10 45.09812 14.98040 33680 ft 360 kts 239°
2026-02-19 12:11 45.07166 14.92026 33692 ft 360 kts 239°
2026-02-19 12:11 45.04517 14.85990 33671 ft 361 kts 239°
2026-02-19 12:12 45.01872 14.79959 33668 ft 361 kts 239°
2026-02-19 12:12 44.97904 14.70985 33667 ft 361 kts 239°
2026-02-19 12:13 44.95241 14.64962 33679 ft 362 kts 238°
2026-02-19 12:13 44.92568 14.58924 33671 ft 362 kts 238°
2026-02-19 12:14 44.89891 14.52893 33667 ft 363 kts 238°
2026-02-19 12:14 44.87204 14.46862 33672 ft 363 kts 238°
2026-02-19 12:15 44.84509 14.40829 33671 ft 364 kts 238°
2026-02-19 12:15 44.81809 14.34783 33669 ft 364 kts 238°
2026-02-19 12:16 44.77762 14.25739 33657 ft 365 kts 238°
2026-02-19 12:17 44.75039 14.19709 33658 ft 365 kts 238°
2026-02-19 12:17 44.72302 14.13658 33654 ft 366 kts 238°
2026-02-19 12:18 44.69573 14.07600 33650 ft 366 kts 238°
2026-02-19 12:18 44.66837 14.01570 33650 ft 366 kts 237°
2026-02-19 12:19 44.64094 13.95516 33650 ft 367 kts 237°
2026-02-19 12:19 44.61369 13.89518 33647 ft 367 kts 237°
2026-02-19 12:20 44.58632 13.83501 33640 ft 366 kts 237°
2026-02-19 12:20 44.54528 13.74468 33637 ft 366 kts 237°
2026-02-19 12:21 44.51785 13.68457 33635 ft 365 kts 237°
2026-02-19 12:21 44.49038 13.62467 33637 ft 365 kts 237°
2026-02-19 12:22 44.46278 13.56488 33629 ft 365 kts 237°
2026-02-19 12:22 44.43531 13.50508 33622 ft 365 kts 236°
2026-02-19 12:23 44.40119 13.45335 33621 ft 368 kts 220°
2026-02-19 12:23 44.35660 13.41693 33621 ft 372 kts 213°
2026-02-19 12:24 44.28815 13.36584 33612 ft 370 kts 213°
2026-02-19 12:25 44.24291 13.33155 33604 ft 370 kts 213°
2026-02-19 12:25 44.19769 13.29732 33607 ft 369 kts 213°
2026-02-19 12:26 44.15252 13.26317 33602 ft 369 kts 213°
2026-02-19 12:26 44.10757 13.22933 33596 ft 369 kts 213°
2026-02-19 12:27 44.06967 13.20077 33598 ft 369 kts 213°
2026-02-19 12:27 44.02467 13.16698 33599 ft 369 kts 213°
2026-02-19 12:28 43.97950 13.13313 33599 ft 368 kts 213°
2026-02-19 12:28 43.91209 13.08252 33596 ft 366 kts 213°
2026-02-19 12:29 43.86726 13.04900 33592 ft 365 kts 213°
2026-02-19 12:29 43.82265 13.01577 33589 ft 363 kts 213°
2026-02-19 12:30 43.77818 12.98263 33595 ft 362 kts 213°
2026-02-19 12:30 43.73379 12.94972 33595 ft 362 kts 213°
2026-02-19 12:31 43.68975 12.91699 33594 ft 361 kts 213°
2026-02-19 12:31 43.64546 12.88411 33600 ft 361 kts 213°
2026-02-19 12:32 43.57907 12.83506 33613 ft 361 kts 213°
2026-02-19 12:33 43.53472 12.80232 33611 ft 362 kts 213°
2026-02-19 12:33 43.49025 12.76958 33620 ft 362 kts 213°
2026-02-19 12:34 43.44606 12.73710 33631 ft 362 kts 213°
2026-02-19 12:34 43.40246 12.70311 32919 ft 359 kts 216°
2026-02-19 12:34 43.38127 12.68520 32321 ft 354 kts 216°
2026-02-19 12:35 43.36049 12.66758 31774 ft 349 kts 216°
2026-02-19 12:35 43.33995 12.65020 31237 ft 343 kts 216°
2026-02-19 12:35 43.31980 12.63318 30689 ft 339 kts 216°
2026-02-19 12:35 43.29985 12.61632 30169 ft 334 kts 216°
2026-02-19 12:36 43.28017 12.59971 29625 ft 329 kts 215°
2026-02-19 12:36 43.24160 12.56723 28322 ft 322 kts 215°
2026-02-19 12:36 43.22258 12.55124 27677 ft 319 kts 215°
2026-02-19 12:37 43.20382 12.53544 27116 ft 316 kts 214°
2026-02-19 12:37 43.18541 12.51998 26575 ft 311 kts 214°
2026-02-19 12:37 43.16707 12.50460 26084 ft 306 kts 214°
2026-02-19 12:37 43.14905 12.48947 25609 ft 302 kts 214°
2026-02-19 12:38 43.13126 12.47453 25148 ft 297 kts 214°
2026-02-19 12:38 43.11373 12.45987 24708 ft 292 kts 214°
2026-02-19 12:38 43.09654 12.44542 24271 ft 288 kts 214°
2026-02-19 12:38 43.07950 12.43118 23825 ft 286 kts 213°
2026-02-19 12:39 43.06261 12.41716 23389 ft 282 kts 213°
2026-02-19 12:39 43.04596 12.40333 22934 ft 279 kts 213°
2026-02-19 12:39 43.02942 12.38956 22471 ft 277 kts 213°
2026-02-19 12:39 43.01307 12.37585 22010 ft 275 kts 213°
2026-02-19 12:40 42.99678 12.36218 21548 ft 273 kts 213°
2026-02-19 12:40 42.96470 12.33542 20714 ft 267 kts 213°
2026-02-19 12:40 42.94909 12.32244 20322 ft 265 kts 213°
2026-02-19 12:41 42.93319 12.30921 19929 ft 263 kts 213°
2026-02-19 12:41 42.91761 12.29624 19538 ft 263 kts 213°
2026-02-19 12:41 42.90222 12.28348 19161 ft 260 kts 213°
2026-02-19 12:41 42.88679 12.27071 18787 ft 258 kts 213°
2026-02-19 12:42 42.87141 12.25796 18414 ft 258 kts 213°
2026-02-19 12:42 42.85606 12.24522 18052 ft 259 kts 213°
2026-02-19 12:42 42.84067 12.23250 17649 ft 258 kts 212°
2026-02-19 12:42 42.82542 12.21989 17279 ft 257 kts 212°
2026-02-19 12:43 42.81015 12.20727 16927 ft 256 kts 212°
2026-02-19 12:43 42.79483 12.19461 16572 ft 258 kts 212°
2026-02-19 12:43 42.77946 12.18190 16212 ft 259 kts 212°
2026-02-19 12:43 42.76356 12.17016 15847 ft 262 kts 204°
2026-02-19 12:44 42.74564 12.16504 15503 ft 266 kts 188°
2026-02-19 12:44 42.70851 12.16359 14874 ft 266 kts 186°
2026-02-19 12:44 42.69037 12.16167 14488 ft 263 kts 192°
2026-02-19 12:45 42.67216 12.15769 13851 ft 267 kts 193°
2026-02-19 12:45 42.65358 12.15331 13124 ft 275 kts 193°
2026-02-19 12:45 42.63439 12.14878 12326 ft 285 kts 193°
2026-02-19 12:45 42.61472 12.14418 11817 ft 283 kts 193°
2026-02-19 12:46 42.59567 12.13973 11596 ft 272 kts 193°
2026-02-19 12:46 42.57742 12.13546 11331 ft 263 kts 193°
2026-02-19 12:46 42.55938 12.13122 10806 ft 263 kts 193°
2026-02-19 12:46 42.54133 12.12701 10353 ft 263 kts 193°
2026-02-19 12:47 42.52343 12.12286 10039 ft 261 kts 194°
2026-02-19 12:47 42.50540 12.11861 9615 ft 260 kts 193°
2026-02-19 12:47 42.48766 12.11445 9188 ft 258 kts 194°
2026-02-19 12:47 42.47002 12.11031 8723 ft 257 kts 194°
2026-02-19 12:48 42.45241 12.10625 8246 ft 256 kts 194°
2026-02-19 12:48 42.41744 12.09816 7362 ft 254 kts 194°
2026-02-19 12:48 42.40015 12.09427 7035 ft 250 kts 194°
2026-02-19 12:49 42.38295 12.09049 6730 ft 249 kts 194°
2026-02-19 12:49 42.36591 12.08684 6456 ft 249 kts 194°
2026-02-19 12:49 42.34875 12.08302 6186 ft 251 kts 194°
2026-02-19 12:49 42.33166 12.07916 6003 ft 245 kts 194°
2026-02-19 12:50 42.31530 12.07553 5978 ft 231 kts 194°
2026-02-19 12:50 42.29991 12.07251 5990 ft 228 kts 188°
2026-02-19 12:50 42.28368 12.07499 5996 ft 234 kts 175°
2026-02-19 12:50 42.26804 12.08024 5985 ft 235 kts 170°
2026-02-19 12:51 42.25253 12.08707 5660 ft 233 kts 169°
2026-02-19 12:51 42.23722 12.09393 5277 ft 232 kts 169°
2026-02-19 12:51 42.22190 12.10070 4911 ft 231 kts 169°
2026-02-19 12:51 42.20671 12.10739 4597 ft 227 kts 169°
2026-02-19 12:52 42.19171 12.11397 4302 ft 228 kts 169°
2026-02-19 12:52 42.16140 12.12725 3695 ft 229 kts 169°
2026-02-19 12:52 42.14619 12.13391 3560 ft 230 kts 168°
2026-02-19 12:53 42.13108 12.14093 3463 ft 229 kts 168°
2026-02-19 12:53 42.11621 12.14758 3366 ft 218 kts 169°
2026-02-19 12:53 42.10226 12.15353 3270 ft 204 kts 171°
2026-02-19 12:53 42.09364 12.15711 3224 ft 204 kts 171°
2026-02-19 12:54 42.08024 12.16273 3162 ft 204 kts 171°
2026-02-19 12:54 42.06664 12.16847 3110 ft 205 kts 170°
2026-02-19 12:54 42.05300 12.17425 3042 ft 205 kts 170°
2026-02-19 12:54 42.03947 12.17999 2981 ft 202 kts 171°
2026-02-19 12:55 42.02611 12.18563 2905 ft 202 kts 171°
2026-02-19 12:55 42.01267 12.19129 2857 ft 202 kts 170°
2026-02-19 12:55 41.99924 12.19696 2823 ft 203 kts 170°
2026-02-19 12:55 41.98571 12.20268 2730 ft 203 kts 170°
2026-02-19 12:56 41.97243 12.20828 2505 ft 203 kts 170°
2026-02-19 12:56 41.94641 12.21926 2046 ft 191 kts 170°
2026-02-19 12:56 41.93369 12.22459 1762 ft 193 kts 170°
2026-02-19 12:57 41.92080 12.23003 1514 ft 193 kts 170°
2026-02-19 12:57 41.90817 12.23536 1241 ft 187 kts 170°
2026-02-19 12:57 41.89596 12.24049 961 ft 181 kts 169°
2026-02-19 12:57 41.88430 12.24543 842 ft 164 kts 170°
2026-02-19 12:58 41.87408 12.24974 613 ft 142 kts 168°
2026-02-19 12:58 41.86540 12.25339 402 ft 124 kts 167°
2026-02-19 12:58 41.85701 12.25683 292 ft 129 kts 166°
2026-02-19 12:58 41.84852 12.26055 140 ft 128 kts 165°
2026-02-19 12:59 41.84009 12.26410 28 ft 122 kts 166°
2026-02-19 12:59 41.83357 12.26669 21 ft 68 kts 162°
2026-02-19 12:59 41.83078 12.26788 20 ft 28 kts 163°
2026-02-19 12:59 41.82885 12.26860 21 ft 29 kts 170°
2026-02-19 13:00 41.82678 12.26861 20 ft 30 kts 191°
2026-02-19 13:00 41.82283 12.26799 22 ft 26 kts 166°
2026-02-19 13:00 41.82104 12.26873 20 ft 28 kts 163°
2026-02-19 13:01 41.81917 12.26949 20 ft 29 kts 162°
2026-02-19 13:01 41.81723 12.27031 20 ft 30 kts 162°
2026-02-19 13:01 41.81521 12.27116 22 ft 31 kts 162°
2026-02-19 13:01 41.81312 12.27202 20 ft 32 kts 163°
2026-02-19 13:02 41.81101 12.27291 20 ft 29 kts 162°
2026-02-19 13:02 41.80928 12.27350 20 ft 24 kts 178°
2026-02-19 13:02 41.80762 12.27316 20 ft 25 kts 189°
2026-02-19 13:02 41.80647 12.27183 20 ft 23 kts 242°
2026-02-19 13:03 41.80588 12.26980 22 ft 24 kts 250°
2026-02-19 13:03 41.80530 12.26765 20 ft 25 kts 250°
2026-02-19 13:03 41.80468 12.26542 22 ft 26 kts 249°
2026-02-19 13:03 41.80403 12.26308 20 ft 27 kts 250°
2026-02-19 13:04 41.80341 12.26123 20 ft 19 kts 223°
2026-02-19 13:04 41.80097 12.25958 20 ft 20 kts 204°
2026-02-19 13:04 41.79968 12.25878 20 ft 21 kts 205°
2026-02-19 13:05 41.79852 12.25823 20 ft 15 kts 191°
2026-02-19 13:05 41.79752 12.25772 20 ft 16 kts 207°
2026-02-19 13:05 41.79664 12.25713 23 ft 9 kts 206°
2026-02-19 13:05 41.79615 12.25709 22 ft 5 kts 140°
2026-02-19 13:06 41.79600 12.25739 20 ft 3 kts 116°
2026-02-19 13:06 41.79595 12.25752 20 ft 1 kts 116°
2026-02-19 13:06 41.79595 12.25753 20 ft 0 kts 116°